Regional Weather Roundup
Issued by NWS Charleston, WV

Home | Current Version | Previous Version | Graphics & Text | Print | Product List | Glossary On
Versions: 1 2 3 4 5 6 7 8 9 10 11 12 13 14 15 16 17 18 19 20 21 22 23 24 25 26 27
000
ASUS41 KRLX 300310
RWRRLX
West Virginia Regional Weather Roundup
National Weather Service Charleston WV
1100 PM EDT SUN MAY 29 2016

Note: "fair" indicates few or no clouds below 12,000 feet with no
significant weather and/or obstructions to visibility.

WVZ003-300400-
Northern Panhandle of West Virginia

CITY           SKY/WX    TMP DP  RH WIND       PRES   REMARKS
WHEELING         N/A     68  62  81 S6        30.06R
$$

WVZ009-300400-
Northwest West Virginia

CITY           SKY/WX    TMP DP  RH WIND       PRES   REMARKS
PARKERSBURG    FOG       66  64  93 CALM      30.07S VSB 3/4
$$

WVZ006-300400-
Western West Virginia

CITY           SKY/WX    TMP DP  RH WIND       PRES   REMARKS
HUNTINGTON       N/A     71  68  90 CALM      30.04R FOG
$$

WVZ015-300400-
West Central West Virginia

CITY           SKY/WX    TMP DP  RH WIND       PRES   REMARKS
CHARLESTON       N/A     68  66  93 CALM      30.06R
$$

WVZ022-031-300400-
North Central West Virginia

CITY           SKY/WX    TMP DP  RH WIND       PRES   REMARKS
CLARKSBURG       N/A     66  65  96 CALM      30.06F FOG
MORGANTOWN       N/A     66  58  75 S3        30.07F
$$

WVZ025-035-042-045-300400-
Southern West Virginia

CITY           SKY/WX    TMP DP  RH WIND       PRES   REMARKS
BECKLEY        MOCLDY    63  57  81 CALM      30.14R
LOGAN            N/A     68  64  88 CALM      30.08R
BLUEFIELD      CLOUDY    61  58  90 CALM      30.16R
LEWISBURG        N/A     60  57  89 E3        30.14F
$$

WVZ047-300400-
Northern Mountains of West Virginia

CITY           SKY/WX    TMP DP  RH WIND       PRES   REMARKS
ELKINS           N/A     61  55  81 CALM      30.12S
$$

WVZ052-300400-
Eastern Panhandle of West Virginia

CITY           SKY/WX    TMP DP  RH WIND       PRES   REMARKS
MARTINSBURG    LGT RAIN  67  65  93 S6        30.06S
PETERSBURG       N/A     64  62  93 CALM      30.11S
$$




USA.gov is the U.S. government's official web portal to all federal, state and local government web resources and services.